{"data":{"norad_id":68811,"intl_designator":"2026-089K","name":"STARLINK-37442","alt_names":[],"object_type":"PAYLOAD","status":"ACTIVE","operator":null,"country":"US","launch_date":"2026-04-23","launch_site_code":"AFWTR","launch_vehicle":null,"mission":null,"orbit_class":"UNKNOWN","rcs_meters":null,"size_class":null,"mass_kg":null,"dimensions":null,"purposes":["comms"],"wikipedia_slug":null,"has_3d_model":false,"image_url":null,"decayed_at":null,"tle_current":{"epoch":"2026-09-19T19:40:43.655808Z","epoch_age_seconds":98885,"freshness":"FRESH","line1":"1 68811U 26089K   26262.81994972  .00014797  00000+0  45969-3 0  9999","line2":"2 68811  97.2861 108.5756 0002036  90.9983 269.1493 15.33448348 23158","mean_motion":15.33448348,"eccentricity":0.0002036,"inclination_deg":97.2861,"raan_deg":108.5756,"arg_perigee_deg":90.9983,"mean_anomaly_deg":269.1493,"bstar":0.00045969,"rev_number":2315,"period_min":93.905999630057,"perigee_km":464.13984194836,"apogee_km":466.92658445918,"semimajor_km":6843.6702132038,"source":"CELESTRAK","updated_at":"2026-09-20T09:00:44.007891Z"}}}